[[{"header":{"parameterUnit":"m.s-1","parameterCategory":1,"la1":30.2991,"la2":30.254,"lo1":-89.0895,"lo2":-89.0444,"dy":0.0017,"dx":0.0017,"nx":28,"ny":28,"refTime":"2025-03-01T03:00:00:Z","depth":0,"parameterNumber":2,"parameterNumberName":"U-component_of_WINDS"},"data":[0,0,0,0,0,0,0,0,0,0,0,0,0,0,0,0,0,0,0,0,0,0,0,0,0,0,0,0,0,0,0,0,0,0,0,0,0,0,0,0,0,0,0,0,0,0,0,0,0,0,0,0,0,0,0,0,0,0,1.4981,1.4981,0,1.5035,1.5035,1.5036,1.504,1.504,1.5039,1.5038,1.5095,1.5097,1.5099,0,0,0,0,0,0,0,0,0,0,0,0,0,1.4882,1.4884,1.4981,1.4981,1.4982,1.5034,1.5035,1.5036,1.504,1.504,1.5039,1.5038,1.5094,1.5097,1.5099,0,0,0,0,0,0,0,0,0,0,0,0,0,1.4929,1.4884,1.498,1.499,1.4992,1.5034,1.5035,1.5036,1.504,1.5039,1.5039,1.5038,1.5094,1.5097,1.51,1.5136,0,0,1.5109,1.511,0,0,0,0,0,0,0,0,1.4926,1.4933,1.4988,1.499,1.4991,1.503,1.5021,1.507,1.5041,1.5022,1.5038,1.5037,1.5074,1.5079,1.5091,1.5139,1.5141,1.5109,1.5111,1.5112,1.5113,0,0,0,0,0,0,0,1.4923,1.493,1.5002,1.4989,1.4991,1.4992,1.4998,1.503,1.5052,1.5024,1.5024,1.503,1.5075,1.5088,1.5092,1.5142,1.5109,1.5112,1.5114,1.5115,1.5222,1.5223,0,0,0,0,0,0,1.4918,1.4928,1.5,1.5004,1.4956,1.4995,1.5001,1.5018,1.5052,1.5056,1.5031,1.503,1.5083,1.5089,1.5094,1.5139,1.5112,1.5115,1.5117,1.5221,1.5223,1.5224,0,0,0,0,0,0,1.4916,1.4924,1.4998,1.4966,1.4975,1.4997,1.5017,1.502,1.5033,1.5058,1.5062,1.504,1.5083,1.509,1.5126,1.5141,1.5117,1.512,1.522,1.5222,1.5223,1.5228,0,0,0,0,0,0,1.4913,1.4923,1.4938,1.4966,1.4977,1.5028,1.5018,1.5022,1.5038,1.5038,1.5067,1.5071,1.5082,1.5121,1.5129,1.5144,1.5122,1.5219,1.5221,1.5223,1.5227,1.523,1.5232,0,0,0,0,0,1.4909,1.4937,1.4938,1.4947,1.4995,1.5029,1.5035,1.5047,1.5039,1.5054,1.5069,1.507,1.5138,1.5124,1.5133,1.515,1.5218,1.522,1.5223,1.5226,1.5229,1.5232,0,0,0,0,0,0,1.4911,1.4941,1.4943,1.4981,1.5002,1.503,1.5048,1.5051,1.5075,1.5074,1.5088,1.5094,1.5129,1.5144,1.5128,1.5187,1.5177,1.5181,1.5176,1.518,1.5183,1.5178,1.5125,0,0,0,0,0,1.4915,1.494,1.4966,1.4997,1.5008,1.5026,1.5041,1.5048,1.5071,1.5081,1.5099,1.5122,1.5148,1.5165,1.5191,1.5229,1.5235,1.5245,1.5248,1.525,1.5253,1.5274,1.5278,1.5231,1.5231,1.5231,0,0,1.4925,1.4945,1.496,1.4998,1.5015,1.5041,1.5034,1.5061,1.508,1.5085,1.5119,1.5134,1.516,1.5197,1.5214,1.521,1.5267,1.5253,1.5254,1.5256,1.5276,1.5281,1.5285,1.5233,1.5232,1.5232,0,0,1.4956,1.4974,1.5002,1.5019,1.5045,1.5057,1.5064,1.5091,1.51,1.5135,1.5139,1.5162,1.5207,1.5225,1.524,1.5277,1.5279,1.5285,1.5299,1.5319,1.5323,1.5326,1.5339,1.5343,1.5289,1.5289,1.5289,0,1.4966,1.5004,1.5015,1.5042,1.5059,1.5064,1.5091,1.5108,1.5141,1.5152,1.5147,1.5203,1.5221,1.5262,1.5271,1.5283,1.5291,1.5282,1.5321,1.5325,1.5328,1.534,1.5345,1.5289,1.5289,1.5289,1.5289,0,1.5013,1.504,1.5059,1.509,1.5109,1.5136,1.5151,1.5169,1.5174,1.5187,1.5222,1.5243,1.5273,1.5283,1.5289,1.5325,1.5321,1.5318,1.5309,1.5333,1.5344,1.5349,1.529,1.529,1.529,1.529,0,0,1.5047,1.5084,1.509,1.5104,1.5133,1.5154,1.5182,1.521,1.5224,1.5247,1.527,1.5308,1.5305,1.5322,1.533,1.5348,1.5374,1.5343,1.5344,1.5347,1.5414,1.5415,1.542,1.5376,1.5377,1.5378,1.5411,0,1.5081,1.5129,1.514,1.5181,1.5205,1.521,1.5234,1.5254,1.5267,1.5289,1.5303,1.5329,1.5324,1.5334,1.5352,1.5367,1.5388,1.5365,1.5397,1.5398,1.539,1.5426,1.5428,1.5459,1.5416,1.5417,1.5418,0,1.5126,1.5149,1.5193,1.5218,1.5228,1.5249,1.5276,1.5297,1.532,1.5328,1.5347,1.5353,1.5381,1.537,1.541,1.5394,1.5408,1.5417,1.5419,1.5422,1.5409,1.5429,1.5469,1.5473,1.5425,1.5424,1.5424,0,1.5145,1.5187,1.5218,1.523,1.526,1.5275,1.5288,1.531,1.5326,1.535,1.536,1.5387,1.5401,1.5422,1.5435,1.5426,1.5473,1.5463,1.5479,1.5479,1.5489,1.5488,1.553,1.5499,1.5499,1.5499,1.5499,0,1.5181,1.5207,1.5227,1.5246,1.5275,1.5288,1.5317,1.533,1.535,1.5372,1.5378,1.5398,1.5415,1.5437,1.5448,1.5478,1.5485,1.5492,1.5494,1.5491,1.549,1.55,1.5497,1.55,1.55,1.55,1.5499,0,1.5207,1.5221,1.5255,1.5281,1.5288,1.5308,1.533,1.5349,1.5361,1.5389,1.5396,1.5415,1.5442,1.5457,1.5492,1.5499,1.5532,1.5534,1.5524,1.5525,1.554,1.5538,1.559,1.5597,1.5562,1.5562,1.5562,0,1.5228,1.5248,1.5276,1.529,1.5304,1.5328,1.5344,1.5357,1.5373,1.5401,1.5416,1.5443,1.5465,1.5508,1.5526,1.5552,1.5553,1.557,1.5557,1.5553,1.5553,1.5551,1.5553,1.5572,1.5572,1.5572,1.5572,0,1.5264,1.527,1.5293,1.5318,1.5337,1.5357,1.5378,1.539,1.5406,1.5424,1.5451,1.5469,1.5503,1.553,1.5557,1.5571,1.5574,1.5576,1.5581,1.5578,1.5571,1.5574,1.5529,1.5575,1.5575,1.5574,1.5574,1.5574,1.5288,1.5306,1.5328,1.5352,1.5369,1.5388,1.5406,1.542,1.5443,1.5471,1.5478,1.5506,1.5529,1.5565,1.558,1.5603,1.56,1.5607,1.5609,1.561,1.561,1.5568,1.5608,1.5608,1.5608,1.5608,1.5608,0,1.5324,1.5338,1.5361,1.5388,1.5408,1.5409,1.5431,1.5448,1.5472,1.5493,1.5514,1.5545,1.5571,1.559,1.5616,1.5631,1.5633,1.5637,1.5636,1.5639,1.5612,1.5605,1.5635,1.5635,1.5635,1.5635,1.5635,1.5635,1.5345,1.5374,1.5383,1.5421,1.5435,1.5462,1.5475,1.5492,1.5508,1.5542,1.5563,1.5575,1.5595,1.5622,1.5646,1.5651,1.566,1.5664,1.5669,1.5644,1.5641,1.5638,1.5631,1.5666,1.5666,1.5694,1.5694,1.5694]},{"header":{"parameterUnit":"m.s-1","parameterCategory":1,"la1":30.2991,"la2":30.254,"lo1":-89.0895,"lo2":-89.0444,"dy":0.0017,"dx":0.0017,"nx":28,"ny":28,"refTime":"2025-03-01T03:00:00:Z","depth":0,"parameterNumber":3,"parameterNumberName":"V-component_of_WINDS"},"data":[0,0,0,0,0,0,0,0,0,0,0,0,0,0,0,0,0,0,0,0,0,0,0,0,0,0,0,0,0,0,0,0,0,0,0,0,0,0,0,0,0,0,0,0,0,0,0,0,0,0,0,0,0,0,0,0,0,0,0.7408,0.7408,0,0.7411,0.7411,0.7411,0.74,0.74,0.74,0.7399,0.7402,0.7402,0.7403,0,0,0,0,0,0,0,0,0,0,0,0,0,0.7394,0.7394,0.7408,0.7408,0.7408,0.7411,0.7411,0.7411,0.74,0.74,0.74,0.7399,0.7402,0.7402,0.7403,0,0,0,0,0,0,0,0,0,0,0,0,0,0.7399,0.7394,0.7408,0.7403,0.7403,0.7411,0.7411,0.7411,0.74,0.74,0.7399,0.7399,0.7402,0.7402,0.7403,0.7415,0,0,0.7404,0.7404,0,0,0,0,0,0,0,0,0.7398,0.7399,0.7404,0.7404,0.7403,0.7405,0.7407,0.7412,0.7401,0.7401,0.7399,0.7399,0.7403,0.7404,0.7405,0.7415,0.7416,0.7404,0.7405,0.7405,0.7405,0,0,0,0,0,0,0,0.7398,0.7399,0.7409,0.7404,0.7404,0.7401,0.7401,0.7408,0.7405,0.7401,0.74,0.7401,0.7403,0.7405,0.7405,0.7416,0.7404,0.7405,0.7405,0.7405,0.7436,0.7437,0,0,0,0,0,0,0.7398,0.7399,0.7409,0.7409,0.74,0.7401,0.7402,0.7405,0.7405,0.7404,0.7401,0.74,0.7404,0.7404,0.7405,0.742,0.7405,0.7405,0.7406,0.7436,0.7436,0.7437,0,0,0,0,0,0,0.7398,0.7399,0.7409,0.7404,0.7405,0.7402,0.7406,0.7405,0.7407,0.7405,0.7404,0.7404,0.7404,0.7404,0.7413,0.742,0.7406,0.7406,0.7435,0.7436,0.7437,0.745,0,0,0,0,0,0,0.7398,0.7399,0.7404,0.7404,0.7405,0.7417,0.7406,0.7405,0.7408,0.7407,0.7407,0.7406,0.7403,0.7412,0.7413,0.742,0.7406,0.7435,0.7436,0.7436,0.7449,0.7451,0.7453,0,0,0,0,0,0.7397,0.7408,0.7405,0.7406,0.7411,0.7418,0.7418,0.7414,0.7408,0.7413,0.7412,0.7406,0.7419,0.7413,0.7414,0.7422,0.7434,0.7435,0.7436,0.7448,0.7451,0.7453,0,0,0,0,0,0,0.7409,0.7408,0.7404,0.7415,0.7417,0.7416,0.7422,0.7417,0.742,0.7419,0.7414,0.7414,0.7424,0.7423,0.7417,0.7434,0.7425,0.7427,0.7434,0.7436,0.7438,0.7438,0.7407,0,0,0,0,0,0.7413,0.7419,0.7417,0.7427,0.7428,0.7425,0.7427,0.7424,0.7425,0.7426,0.7425,0.7426,0.743,0.7433,0.7437,0.7448,0.7448,0.7454,0.7456,0.7458,0.7459,0.7465,0.7468,0.7441,0.7441,0.7441,0,0,0.7422,0.7421,0.7425,0.7429,0.743,0.7435,0.7425,0.7431,0.7435,0.7427,0.7435,0.7434,0.7435,0.7445,0.745,0.7445,0.7467,0.7459,0.7461,0.7461,0.7467,0.7469,0.7471,0.7441,0.7441,0.7441,0,0,0.744,0.744,0.7448,0.7449,0.745,0.7448,0.745,0.7449,0.7449,0.7457,0.745,0.7454,0.7462,0.7463,0.7464,0.7482,0.7477,0.7483,0.7494,0.7499,0.7502,0.7503,0.751,0.7512,0.7484,0.7484,0.7484,0,0.745,0.7458,0.7453,0.7459,0.7461,0.7454,0.7462,0.7463,0.7465,0.7466,0.7461,0.747,0.747,0.748,0.7484,0.7486,0.7488,0.7483,0.7502,0.7503,0.7505,0.7511,0.7513,0.7485,0.7485,0.7485,0.7485,0,0.747,0.7476,0.7482,0.7484,0.7487,0.7494,0.749,0.7493,0.749,0.7488,0.7496,0.7496,0.7499,0.7501,0.7498,0.7511,0.7508,0.7503,0.7494,0.7509,0.7514,0.7516,0.7486,0.7486,0.7486,0.7485,0,0,0.7497,0.7496,0.7498,0.7499,0.7499,0.7503,0.751,0.7513,0.7516,0.7517,0.7523,0.7529,0.7523,0.7525,0.7522,0.7527,0.754,0.752,0.752,0.7524,0.7555,0.7559,0.7562,0.7537,0.7537,0.7538,0.7554,0,0.7514,0.7526,0.7521,0.7533,0.7538,0.753,0.7536,0.7537,0.7535,0.7539,0.7537,0.7541,0.7534,0.7535,0.7539,0.7538,0.7546,0.7536,0.7542,0.7542,0.7542,0.7565,0.7569,0.7585,0.7557,0.7557,0.7557,0,0.7537,0.7539,0.7551,0.755,0.7552,0.7557,0.756,0.7563,0.7564,0.7562,0.7564,0.7559,0.7565,0.7556,0.7565,0.7558,0.756,0.7559,0.756,0.756,0.7551,0.7566,0.759,0.7593,0.7561,0.756,0.756,0,0.7555,0.7561,0.7569,0.757,0.7569,0.7572,0.7572,0.7572,0.7574,0.7576,0.7577,0.758,0.7582,0.7584,0.758,0.7574,0.7589,0.758,0.7588,0.7588,0.7591,0.7591,0.7617,0.7592,0.7592,0.7592,0.7592,0,0.7575,0.7583,0.7577,0.7582,0.759,0.7585,0.7593,0.7592,0.7592,0.7596,0.759,0.7594,0.7588,0.7592,0.7589,0.7597,0.7597,0.7596,0.7595,0.7597,0.7597,0.7598,0.7597,0.7593,0.7593,0.7593,0.7593,0,0.7597,0.7593,0.7601,0.76,0.7599,0.7605,0.7604,0.7608,0.7606,0.7612,0.7613,0.7609,0.7613,0.7609,0.7613,0.7611,0.7621,0.7618,0.7621,0.762,0.7628,0.7628,0.7655,0.7659,0.7632,0.7632,0.7633,0,0.761,0.7616,0.7615,0.7617,0.7617,0.7621,0.7623,0.7618,0.762,0.7621,0.7625,0.7628,0.7631,0.7638,0.7635,0.7638,0.7636,0.7645,0.7636,0.7637,0.7636,0.7636,0.7636,0.7647,0.7647,0.7648,0.7648,0,0.7634,0.7632,0.7635,0.7638,0.764,0.7642,0.7643,0.7645,0.7639,0.7642,0.7646,0.7648,0.7652,0.7655,0.7657,0.7657,0.7652,0.7651,0.7653,0.7655,0.7656,0.7655,0.7626,0.765,0.765,0.765,0.765,0.765,0.7653,0.7657,0.7657,0.766,0.766,0.7661,0.7665,0.7663,0.7666,0.7669,0.7666,0.767,0.767,0.7672,0.7672,0.7676,0.7672,0.7675,0.7676,0.7676,0.7678,0.7655,0.7676,0.7676,0.7676,0.7676,0.7676,0,0.7676,0.7676,0.7679,0.768,0.7683,0.7677,0.7678,0.7681,0.7685,0.7685,0.7688,0.7692,0.7695,0.7693,0.7695,0.7699,0.7696,0.77,0.7699,0.7699,0.7681,0.7679,0.7701,0.7701,0.7701,0.7701,0.7701,0.7701,0.7689,0.7697,0.7694,0.7702,0.7701,0.7705,0.7706,0.7707,0.7707,0.7712,0.7715,0.7713,0.7712,0.7714,0.7717,0.7716,0.7717,0.7722,0.772,0.7703,0.7701,0.7698,0.7696,0.7722,0.7722,0.7738,0.7738,0.7738]}]]